This demonstration page uses our WeatherBlox Daily Observations layout. Learn more.

38.89511, -77.03637

Hourly Observations for September 3, 2015

Temp ( °F °C ) Dew Point ( °F °C ) Humidity (%) Winds ( mph kmh ) Pressure ( in mb ) Visibility ( mi km ) Precip ( " mm )
12:52 am 00:52 Clear 75 24 70 21 83 83 W 7 11 29.94 1014 10 16.09344 0 0
1:52 am 01:52 Clear 75 24 68 20 78 78 W 5 7 29.94 1014 10 16.09344 0 0
2:52 am 02:52 Clear 75 24 66 19 74 74 W 5 7 29.91 1013 10 16.09344 0 0
3:52 am 03:52 Clear 75 24 66 19 74 74 Calm 29.91 1013 10 16.09344 0 0
4:52 am 04:52 Clear 75 24 66 19 74 74 NE 3 6 29.91 1013 10 16.09344 0 0
5:52 am 05:52 Clear 75 24 66 19 74 74 N 6 9 29.91 1013 10 16.09344 0 0
6:52 am 06:52 Partly Cloudy 75 24 66 19 74 74 N 7 11 29.91 1013 10 16.09344 0 0
7:52 am 07:52 Mostly Sunny 77 25 68 20 74 74 NNE 6 9 29.94 1014 10 16.09344 0 0
8:52 am 08:52 Sunny 81 27 66 19 62 62 NNW 6 9 29.94 1014 10 16.09344 0 0
9:52 am 09:52 Sunny 82 28 68 20 62 62 N 9 15 29.94 1014 10 16.09344 0 0
10:52 am 10:52 Mostly Sunny 86 30 70 21 59 59 NNW 6 9 29.94 1014 10 16.09344 0 0
11:52 am 11:52 Mostly Sunny 90 32 70 21 52 52 N 5 7 29.91 1013 10 16.09344 0 0
12:52 pm 12:52 Partly Cloudy 90 32 70 21 52 52 Calm 29.91 1013 10 16.09344 0 0
1:52 pm 13:52 Partly Cloudy 91 33 70 21 49 49 N 6 9 29.88 1012 10 16.09344 0 0
2:52 pm 14:52 Partly Cloudy 93 34 68 20 44 44 NNW 10 17 29.88 1012 10 16.09344 0 0
3:52 pm 15:52 Partly Cloudy 95 35 66 19 39 39 N 7 11 29.85 1011 10 16.09344 0 0
4:52 pm 16:52 Partly Cloudy 93 34 66 19 41 41 N 6 9 29.83 1010 10 16.09344 0 0
5:07 pm 17:07 Partly Cloudy with Thunderstorms 91 33 68 20 46 46 E 13 20 29.83 1010 10 16.09344 0 0
5:23 pm 17:23 Mostly Cloudy 88 31 68 20 52 52 ESE 16 26 29.83 1010 10 16.09344 0 0
5:41 pm 17:41 Mostly Cloudy with Thunderstorms 84 29 68 20 58 58 E 21 33 29.83 1010 10 16.09344 0 0
5:52 pm 17:52 Mostly Cloudy with Thunderstorms 84 29 66 19 55 55 SSE 12 19 29.85 1011 10 16.09344 0 0
5:59 pm 17:59 Mostly Cloudy with Light Thunderstorms 84 29 66 19 55 55 SSE 15 24 29.85 1011 10 16.09344 0.001 0.001
6:11 pm 18:11 Mostly Cloudy 82 28 66 19 58 58 ENE 7 11 29.85 1011 10 16.09344 0.001 0.001
6:37 pm 18:37 Mostly Cloudy 81 27 70 21 70 70 S 6 9 29.85 1011 10 16.09344 0.001 0.001
6:52 pm 18:52 Mostly Cloudy 82 28 70 21 66 66 S 5 7 29.85 1011 10 16.09344 0.001 0.001
7:52 pm 19:52 Mostly Cloudy 81 27 72 22 74 74 ENE 3 6 29.88 1012 10 16.09344 0 0
8:15 pm 20:15 Cloudy 81 27 73 23 79 79 E 8 13 29.88 1012 10 16.09344 0 0
8:52 pm 20:52 Cloudy 81 27 72 22 74 74 SSE 3 6 29.88 1012 10 16.09344 0 0
9:52 pm 21:52 Cloudy 81 27 72 22 74 74 S 5 7 29.91 1013 10 16.09344 0 0
10:52 pm 22:52 Cloudy 81 27 73 23 79 79 Calm 29.91 1013 10 16.09344 0 0
11:52 pm 23:52 Cloudy 79 26 70 21 74 74 N 6 9 29.91 1013 10 16.09344 0 0

Powered by AerisWeather